This is the latest recevied weather packets stored in our database for station/object OE5RPP. If no packets are shown the sender has not sent any weather packets the latest 1 day(s).
| Time | Temp. | Humidity | Pressure | Rain* | Wind** | Luminosity | Snow |
|---|---|---|---|---|---|---|---|
| 1836274459 | 7.78° C | 70% | 1025.9 hPa | 0 mm | 0 m/s | - | - |
| 1836274310 | 7.22° C | 70% | 1025.9 hPa | 0 mm | 0 m/s | - | - |
| 1778034065 | 11.11° C | 53% | 1011.9 hPa | 0 mm | 0 m/s | - | - |
| 1778033467 | 11.11° C | 53% | 1011.9 hPa | 0 mm | 1.34 m/s, 247° | - | - |
| 1778032866 | 11.11° C | 53% | 1011.9 hPa | 0 mm | 0 m/s | - | - |
| 1778032266 | 11.11° C | 53% | 1011.9 hPa | 0 mm | 1.79 m/s, 270° | - | - |
| 1778031665 | 11.11° C | 50% | 1011.9 hPa | 0 mm | 0 m/s | - | - |
| 1778031067 | 11.67° C | 50% | 1011.9 hPa | 0 mm | 0 m/s | - | - |
| 1778030467 | 11.67° C | 50% | 1011.9 hPa | 0 mm | 0.89 m/s, 270° | - | - |
| 1778029866 | 11.67° C | 48% | 1011.9 hPa | 0 mm | 0.89 m/s, 247° | - | - |
| 1778029265 | 12.22° C | 48% | 1011.9 hPa | 0 mm | 1.79 m/s, 247° | - | - |
| 1778028665 | 12.22° C | 49% | 1011.9 hPa | 0 mm | 2.68 m/s, 180° | - | - |
| 1778028066 | 12.22° C | 48% | 1011.9 hPa | 0 mm | 1.79 m/s, 157° | - | - |
| 1778027466 | 12.22° C | 48% | 1012.9 hPa | 0 mm | 2.24 m/s, 180° | - | - |
| 1778026866 | 12.22° C | 48% | 1012.9 hPa | 0 mm | 0.89 m/s, 202° | - | - |
| 1778026265 | 12.22° C | 48% | 1012.9 hPa | 0 mm | 0 m/s | - | - |
| 1778025666 | 12.22° C | 47% | 1012.9 hPa | 0 mm | 0 m/s | - | - |
| 1778025066 | 12.78° C | 47% | 1012.9 hPa | 0 mm | 0 m/s | - | - |
| 1778024465 | 13.33° C | 47% | 1012.9 hPa | 0 mm | 1.34 m/s, 270° | - | - |
| 1778023867 | 13.33° C | 46% | 1012.9 hPa | 0 mm | 1.79 m/s, 270° | - | - |
| 1778023267 | 13.33° C | 46% | 1012.9 hPa | 0 mm | 2.24 m/s, 315° | - | - |
| 1778022666 | 13.89° C | 42% | 1012.9 hPa | 0 mm | 1.79 m/s, 315° | - | - |
| 1778022065 | 13.89° C | 41% | 1012.9 hPa | 0 mm | 1.79 m/s, 292° | - | - |
| 1778021465 | 13.89° C | 43% | 1012.9 hPa | 0 mm | 2.68 m/s, 270° | - | - |
| 1778020867 | 13.89° C | 46% | 1011.9 hPa | 0 mm | 2.68 m/s, 292° | - | - |
* Rain latest hour (hover to see other rain measurements)
** Current wind speed in m/s (hover to see current wind gust speed)